DELTA 1 DEB, 2700

Orbit data source: Space-Track

DELTA 1 DEB, 2700 is space debris in LEO originally from a launch on Sat, 06 Nov 1965 UTC launched from the Air Force Eastern Test Range (AFETR). Debris objects in space refer to the collection of defunct objects orbiting the Earth. Examples of debris include non-operational satellites, rocket bodies, and fragments generated from explosions, collisions, or faulty payload assembly.

Loading next visibility...
Identifier
2700, 1965-089C
Orbit
LEO
Last TLE update
6 days ago
Origin
Manufacturer
Unknown
Mission
Spacecraft
Bus & Motor
Unknown
Mass
Unknown
Launch date (UTC)
1965-11-06 (60 years ago)
Launch vehicle
Unknown
Launch site
Air Force Eastern Test Range (AFETR)
Object type
Payload
Rocket body
Debris
Shape & HBR
Unknown
Radar Cross Section
Small (<0.1 m²)

Expand to show TLE details & history

TLE from 6 days ago
0 DELTA 1 DEB
1 02700U 65089C   25176.32920044  .00000017  00000-0  47142-3 0  9991
2 02700  59.6001  31.2002 0715702 212.0898 329.1380 12.08965024668308
Epoch: 2025-06-25T07:54Z
TLE epoch observation values (Epoch: 2025-06-25T07:54:02.918Z)
Latitude
2.80034°
Longitude
177.33969°
Altitude
1,161.213 km
Speed
7.488 km/s
True Right ascension
13h 58m 15s
True Declination
2° 47' 04"
Sunlit
Object was in daylight at epoch
Visualization orbit readout
Latitude
-19.51666°
Longitude
-26.8449°
Altitude
1,915.652 km
Speed
6.816 km/s
Apparent Right ascension
02h 56m 01s
Apparent Declination
-50° 10' 21"
Sunlit
Object is in daylight
Visualization observer readout
Local Sidereal Time
21:15:25
Azimuth
134.347° SE
Elevation
-26.823°
Doppler factor
1
Orbital elements
Apogee altitude
2,214.217 km
Perigee altitude
1,066.45 km
Semi-major axis
8,018.471 km
Eccentricity
0.07157
Inclination
59.6001°
RAAN
31.2002°
Arg. of periapsis
212.0898°
True anomaly
Unknown
Mean anomaly
329.138°
Eccentric anomaly
Unknown
Mean motion
3.02278 °/min
Orbital period
119.1 mins
BSTAR
0.00047142
Loading maneuver chart data...
Loading SW <> Apogee altitude chart data...
Loading historical data...
Loading historical data...
Loading historical data...
Loading historical data...
Loading historical data...
Loading historical data...
Loading historical data...

DELTA 1 DEB Visibility forecast

Observer location: undefined°, undefined°

Span
Click to sort rows by Start time (UTC) header in descending order
Start Az.
Max El. time (UTC)
Max El. Az.
Max El.
End time (UTC)
End Az.
22 mins2025-07-01 13:47:06.887Z179.39° S2025-07-01 13:58:06.887Z116.791° SE34.633°2025-07-01 14:09:06.887Z50.745° ENE
23 mins2025-07-01 15:51:06.887Z232.196° WSW2025-07-01 16:02:06.887Z302.627° NW43.192°2025-07-01 16:14:06.887Z37.854° NE
19 mins2025-07-01 18:00:06.887Z283.764° WNW2025-07-01 18:09:06.887Z336.677° NNW28.901°2025-07-01 18:19:06.887Z40.084° NE
17 mins2025-07-01 20:09:06.887Z316.656° NNW2025-07-01 20:18:06.887Z10.884° NNE25.427°2025-07-01 20:26:06.887Z65.351° ENE
17 mins2025-07-01 22:16:06.887Z325.651° NNW2025-07-01 22:25:06.887Z39.405° NE38.887°2025-07-01 22:33:06.887Z113.974° SE
15 mins2025-07-02 00:21:06.887Z308.908° NW2025-07-02 00:29:06.887Z241.427° WSW35.503°2025-07-02 00:36:06.887Z175.318° S
|